QPF
0.00 0.00 0.00 0.02 0.02 0.02 0.03 0.03 0.03 0.03 0.02 0.02 0.02 0.02 0.02 0.01 0.01 0.01 0.01 0.01 0.00 0.00 0.00 0.00 0.00 0.00 0.00 0.00 0.00 0.00 0.00 0.00 0.00 0.00 0.00 0.00 0.01 0.01 0.00 0.00 0.00 0.00 0.01
0.00 0.00 0.00 0.02 0.02 0.02 0.02 0.02 0.03 0.02 0.02 0.02 0.02 0.01 0.01 0.01 0.01 0.01 0.00 0.00 0.00 0.00 0.00 0.00 0.00 0.00 0.00 0.00 0.00 0.00 0.00 0.00 0.00 0.00 0.00 0.00 0.00 0.00 0.01 0.00 0.00 0.00 0.01
0.00 0.00 0.00 0.02 0.01 0.01 0.01 0.02 0.02 0.02 0.02 0.03 0.02 0.01 0.01 0.01 0.01 0.00 0.00 0.00 0.00 0.00 0.00 0.00 0.00 0.00 0.00 0.00 0.00 0.00 0.00 0.00 0.00 0.00 0.00 0.00 0.00 0.00 0.00 0.00 0.00 0.00 0.01
0.00 0.01 0.00 0.01 0.01 0.01 0.01 0.01 0.01 0.01 0.01 0.02 0.01 0.01 0.01 0.01 0.01 0.01 0.00 0.00 0.00 0.00 0.00 0.00 0.00 0.00 0.00 0.00 0.00 0.00 0.00 0.00 0.00 0.00 0.00 0.00 0.00 0.00 0.00 0.00 0.00 0.00 0.00
0.00 0.00 0.00 0.00 0.00 0.00 0.00 0.01 0.01 0.01 0.01 0.01 0.01 0.01 0.01 0.01 0.01 0.01 0.01 0.00 0.00 0.00 0.00 0.00 0.00 0.00 0.00 0.00 0.00 0.00 0.00 0.00 0.00 0.00 0.00 0.00 0.00 0.01 0.00 0.00 0.00 0.00 0.00
0.00 0.00 0.00 0.00 0.00 0.00 0.00 0.01 0.00 0.00 0.01 0.01 0.01 0.01 0.01 0.01 0.01 0.01 0.00 0.00 0.00 0.00 0.00 0.00 0.00 0.00 0.00 0.00 0.00 0.00 0.00 0.00 0.00 0.00 0.00 0.00 0.00 0.01 0.01 0.01 0.01 0.00 0.01
0.00 0.00 0.00 0.00 0.00 0.00 0.00 0.00 0.00 0.01 0.01 0.01 0.01 0.01 0.01 0.00 0.00 0.00 0.00 0.00 0.00 0.00 0.00 0.00 0.00 0.00 0.00 0.00 0.00 0.00 0.00 0.00 0.00 0.00 0.00 0.00 0.01 0.01 0.01 0.01 0.01 0.01 0.01
0.00 0.00 0.00 0.00 0.00 0.00 0.00 0.00 0.01 0.01 0.01 0.01 0.01 0.00 0.00 0.00 0.00 0.00 0.00 0.00 0.00 0.00 0.00 0.00 0.00 0.00 0.00 0.00 0.00 0.00 0.00 0.00 0.00 0.00 0.00 0.00 0.01 0.01 0.01 0.01 0.01 0.01 0.01
0.00 0.00 0.00 0.00 0.00 0.00 0.00 0.00 0.00 0.00 0.00 0.00 0.00 0.00 0.00 0.00 0.00 0.00 0.00 0.00 0.00 0.00 0.00 0.00 0.00 0.00 0.00 0.00 0.00 0.00 0.00 0.00 0.00 0.00 0.00 0.00 0.01 0.01 0.01 0.01 0.01 0.01 0.01
0.00 0.00 0.00 0.00 0.00 0.00 0.00 0.00 0.00 0.00 0.00 0.00 0.00 0.00 0.00 0.00 0.00 0.00 0.00 0.00 0.00 0.00 0.00 0.00 0.00 0.00 0.00 0.00 0.00 0.00 0.00 0.00 0.00 0.00 0.00 0.00 0.01 0.01 0.01 0.01 0.01 0.02 0.02
0.00 0.00 0.00 0.00 0.00 0.00 0.00 0.00 0.00 0.00 0.00 0.00 0.00 0.00 0.00 0.00 0.00 0.00 0.00 0.00 0.00 0.00 0.00 0.00 0.00 0.00 0.00 0.00 0.00 0.00 0.00 0.00 0.00 0.00 0.00 0.00 0.01 0.01 0.01 0.01 0.01 0.02 0.02
0.00 0.00 0.00 0.00 0.00 0.00 0.00 0.00 0.00 0.00 0.00 0.00 0.00 0.00 0.00 0.00 0.00 0.00 0.00 0.00 0.00 0.00 0.00 0.00 0.00 0.00 0.00 0.00 0.00 0.00 0.00 0.00 0.00 0.00 0.00 0.00 0.00 0.01 0.01 0.01 0.01 0.01 0.01
0.00 0.00 0.00 0.00 0.00 0.00 0.00 0.00 0.00 0.00 0.00 0.00 0.00 0.00 0.00 0.00 0.00 0.00 0.00 0.00 0.00 0.00 0.00 0.00 0.00 0.00 0.00 0.00 0.00 0.00 0.00 0.00 0.00 0.00 0.00 0.00 0.00 0.01 0.01 0.01 0.01 0.01 0.01
0.00 0.00 0.00 0.00 0.00 0.00 0.00 0.00 0.00 0.00 0.00 0.00 0.00 0.00 0.00 0.00 0.00 0.00 0.00 0.00 0.00 0.00 0.00 0.00 0.00 0.00 0.00 0.00 0.00 0.00 0.00 0.00 0.00 0.00 0.00 0.00 0.00 0.00 0.01 0.01 0.01 0.01 0.01
0.00 0.00 0.00 0.00 0.00 0.00 0.00 0.00 0.00 0.00 0.00 0.00 0.00 0.00 0.00 0.00 0.00 0.00 0.00 0.00 0.00 0.00 0.00 0.00 0.00 0.00 0.00 0.00 0.00 0.00 0.00 0.00 0.00 0.00 0.00 0.00 0.00 0.00 0.00 0.00 0.01 0.01 0.01
0.00 0.00 0.00 0.00 0.00 0.00 0.00 0.00 0.00 0.00 0.00 0.00 0.00 0.00 0.00 0.00 0.00 0.00 0.00 0.00 0.00 0.00 0.00 0.00 0.00 0.00 0.00 0.00 0.00 0.00 0.00 0.00 0.00 0.00 0.00 0.00 0.00 0.00 0.00 0.00 0.00 0.00 0.01
0.00 0.00 0.00 0.00 0.00 0.00 0.00 0.00 0.00 0.00 0.00 0.00 0.00 0.00 0.00 0.00 0.00 0.00 0.00 0.00 0.00 0.00 0.00 0.00 0.00 0.00 0.00 0.00 0.00 0.00 0.00 0.00 0.00 0.00 0.00 0.00 0.00 0.00 0.00 0.00 0.00 0.00 0.00
0.00 0.00 0.00 0.00 0.00 0.00 0.00 0.00 0.00 0.00 0.00 0.00 0.00 0.00 0.00 0.00 0.00 0.00 0.00 0.00 0.00 0.00 0.00 0.00 0.00 0.00 0.00 0.00 0.00 0.00 0.00 0.00 0.00 0.00 0.00 0.00 0.00 0.00 0.00 0.00 0.00 0.00 0.00
0.00 0.00 0.00 0.00 0.00 0.00 0.00 0.00 0.00 0.00 0.00 0.00 0.00 0.00 0.00 0.00 0.00 0.00 0.00 0.00 0.00 0.00 0.00 0.00 0.00 0.00 0.00 0.00 0.00 0.00 0.00 0.00 0.00 0.00 0.00 0.00 0.00 0.00 0.00 0.00 0.00 0.00 0.00
0.00 0.00 0.00 0.00 0.00 0.00 0.00 0.00 0.00 0.00 0.00 0.00 0.00 0.00 0.00 0.00 0.00 0.00 0.00 0.00 0.00 0.00 0.00 0.00 0.00 0.00 0.00 0.00 0.00 0.00 0.00 0.00 0.00 0.00 0.00 0.00 0.00 0.00 0.00 0.00 0.00 0.00 0.00
0.00 0.00 0.00 0.00 0.00 0.00 0.00 0.00 0.00 0.00 0.00 0.00 0.00 0.00 0.00 0.00 0.00 0.00 0.00 0.00 0.00 0.00 0.00 0.00 0.00 0.00 0.00 0.00 0.00 0.00 0.00 0.00 0.00 0.00 0.00 0.00 0.00 0.00 0.00 0.00 0.00 0.00 0.00
0.00 0.00 0.00 0.00 0.00 0.00 0.00 0.00 0.00 0.00 0.00 0.00 0.00 0.00 0.00 0.00 0.00 0.00 0.00 0.00 0.00 0.00 0.00 0.00 0.00 0.00 0.00 0.00 0.00 0.00 0.00 0.00 0.00 0.00 0.00 0.00 0.00 0.00 0.00 0.00 0.00 0.00 0.00
0.00 0.00 0.00 0.00 0.00 0.00 0.00 0.00 0.00 0.00 0.00 0.00 0.00 0.00 0.00 0.00 0.00 0.00 0.00 0.00 0.00 0.00 0.00 0.00 0.00 0.00 0.00 0.00 0.00 0.00 0.00 0.00 0.00 0.00 0.00 0.00 0.00 0.00 0.00 0.00 0.00 0.00 0.00
0.00 0.00 0.00 0.00 0.00 0.00 0.00 0.00 0.00 0.00 0.00 0.00 0.00 0.00 0.00 0.00 0.00 0.00 0.00 0.00 0.00 0.00 0.00 0.00 0.00 0.00 0.00 0.00 0.00 0.00 0.00 0.00 0.00 0.00 0.00 0.00 0.00 0.00 0.00 0.00 0.00 0.00 0.00
0.00 0.00 0.00 0.00 0.00 0.00 0.00 0.00 0.00 0.00 0.00 0.00 0.00 0.00 0.00 0.00 0.00 0.00 0.00 0.00 0.00 0.00 0.00 0.00 0.00 0.00 0.00 0.00 0.00 0.00 0.00 0.00 0.00 0.00 0.00 0.00 0.00 0.00 0.00 0.00 0.00 0.00 0.00
0.00 0.00 0.00 0.00 0.00 0.00 0.00 0.00 0.00 0.00 0.00 0.00 0.00 0.00 0.00 0.00 0.00 0.00 0.00 0.00 0.00 0.00 0.00 0.00 0.00 0.00 0.00 0.00 0.00 0.00 0.00 0.00 0.00 0.00 0.00 0.00 0.00 0.00 0.00 0.00 0.00 0.00 0.00
MSLP
1021.79 1021.56 1021.43 1021.41 1021.48 1021.62 1021.76 1021.86 1021.91 1021.88 1021.81 1021.72 1021.67 1021.68 1021.76 1021.91 1022.09 1022.28 1022.44 1022.57 1022.64 1022.70 1022.74 1022.80 1022.88 1022.99 1023.11 1023.22 1023.30 1023.34 1023.33 1023.28 1023.20 1023.12 1023.05 1022.99 1022.94 1022.91 1022.88 1022.84 1022.79 1022.73 1022.65
1021.78 1021.60 1021.51 1021.51 1021.60 1021.74 1021.89 1022.01 1022.06 1022.06 1022.03 1022.00 1022.00 1022.08 1022.23 1022.43 1022.66 1022.88 1023.06 1023.18 1023.24 1023.27 1023.28 1023.30 1023.35 1023.42 1023.51 1023.61 1023.68 1023.72 1023.72 1023.69 1023.63 1023.58 1023.52 1023.47 1023.44 1023.40 1023.35 1023.29 1023.21 1023.11 1023.01
1021.76 1021.62 1021.55 1021.57 1021.67 1021.83 1021.99 1022.13 1022.22 1022.26 1022.28 1022.31 1022.39 1022.53 1022.73 1022.98 1023.24 1023.47 1023.64 1023.74 1023.78 1023.77 1023.74 1023.73 1023.74 1023.78 1023.85 1023.93 1023.99 1024.04 1024.06 1024.06 1024.04 1024.02 1023.99 1023.95 1023.91 1023.86 1023.78 1023.69 1023.57 1023.45 1023.32
1021.75 1021.64 1021.60 1021.65 1021.77 1021.94 1022.13 1022.29 1022.41 1022.50 1022.56 1022.65 1022.78 1022.96 1023.21 1023.48 1023.74 1023.97 1024.13 1024.21 1024.22 1024.18 1024.12 1024.08 1024.07 1024.09 1024.15 1024.22 1024.29 1024.35 1024.39 1024.42 1024.43 1024.43 1024.41 1024.39 1024.34 1024.26 1024.15 1024.02 1023.87 1023.72 1023.57
1021.80 1021.73 1021.72 1021.80 1021.94 1022.14 1022.34 1022.51 1022.66 1022.76 1022.86 1022.97 1023.13 1023.34 1023.59 1023.87 1024.13 1024.35 1024.49 1024.55 1024.54 1024.50 1024.43 1024.39 1024.37 1024.39 1024.45 1024.52 1024.60 1024.67 1024.72 1024.77 1024.79 1024.80 1024.79 1024.76 1024.69 1024.58 1024.44 1024.28 1024.10 1023.92 1023.76
1021.92 1021.90 1021.93 1022.04 1022.22 1022.43 1022.63 1022.81 1022.95 1023.05 1023.15 1023.27 1023.42 1023.63 1023.88 1024.15 1024.39 1024.59 1024.73 1024.79 1024.79 1024.75 1024.70 1024.68 1024.68 1024.72 1024.79 1024.87 1024.95 1025.03 1025.09 1025.13 1025.15 1025.14 1025.12 1025.06 1024.96 1024.82 1024.65 1024.46 1024.27 1024.09 1023.94
1022.10 1022.13 1022.22 1022.37 1022.58 1022.80 1023.00 1023.17 1023.28 1023.36 1023.43 1023.52 1023.66 1023.85 1024.08 1024.33 1024.57 1024.76 1024.89 1024.96 1024.98 1024.97 1024.97 1024.98 1025.02 1025.10 1025.19 1025.28 1025.37 1025.43 1025.48 1025.49 1025.49 1025.45 1025.39 1025.30 1025.17 1025.00 1024.81 1024.62 1024.43 1024.27 1024.14
1022.30 1022.38 1022.53 1022.74 1022.98 1023.21 1023.41 1023.54 1023.62 1023.66 1023.69 1023.75 1023.86 1024.03 1024.25 1024.48 1024.71 1024.90 1025.04 1025.12 1025.17 1025.20 1025.25 1025.31 1025.40 1025.51 1025.62 1025.73 1025.81 1025.87 1025.88 1025.86 1025.82 1025.74 1025.64 1025.51 1025.35 1025.16 1024.97 1024.78 1024.61 1024.49 1024.41
1022.46 1022.59 1022.80 1023.06 1023.34 1023.59 1023.77 1023.89 1023.93 1023.94 1023.94 1023.98 1024.07 1024.24 1024.45 1024.68 1024.90 1025.09 1025.23 1025.33 1025.40 1025.46 1025.54 1025.64 1025.77 1025.91 1026.05 1026.17 1026.24 1026.28 1026.27 1026.22 1026.13 1026.01 1025.87 1025.71 1025.54 1025.35 1025.17 1025.00 1024.88 1024.80 1024.77
1022.51 1022.70 1022.96 1023.28 1023.60 1023.87 1024.05 1024.15 1024.18 1024.17 1024.17 1024.21 1024.31 1024.49 1024.71 1024.95 1025.17 1025.36 1025.49 1025.59 1025.66 1025.73 1025.82 1025.94 1026.09 1026.25 1026.41 1026.53 1026.61 1026.63 1026.60 1026.52 1026.41 1026.27 1026.12 1025.95 1025.77 1025.60 1025.44 1025.31 1025.22 1025.19 1025.21
1022.42 1022.66 1022.99 1023.35 1023.71 1024.00 1024.20 1024.31 1024.34 1024.35 1024.36 1024.44 1024.58 1024.79 1025.04 1025.29 1025.52 1025.70 1025.82 1025.89 1025.94 1025.99 1026.07 1026.18 1026.33 1026.50 1026.66 1026.79 1026.87 1026.89 1026.86 1026.78 1026.67 1026.53 1026.38 1026.22 1026.06 1025.91 1025.79 1025.69 1025.64 1025.65 1025.71
1022.19 1022.48 1022.86 1023.27 1023.66 1023.98 1024.20 1024.33 1024.39 1024.43 1024.50 1024.63 1024.83 1025.09 1025.38 1025.67 1025.90 1026.07 1026.16 1026.20 1026.20 1026.22 1026.26 1026.34 1026.47 1026.63 1026.79 1026.93 1027.02 1027.06 1027.05 1026.99 1026.90 1026.79 1026.66 1026.53 1026.41 1026.29 1026.20 1026.14 1026.11 1026.14 1026.21
1021.86 1022.19 1022.60 1023.05 1023.47 1023.81 1024.05 1024.21 1024.32 1024.41 1024.54 1024.74 1025.01 1025.34 1025.68 1025.99 1026.23 1026.39 1026.46 1026.45 1026.42 1026.38 1026.38 1026.43 1026.53 1026.67 1026.83 1026.97 1027.08 1027.15 1027.18 1027.16 1027.12 1027.05 1026.98 1026.89 1026.80 1026.72 1026.65 1026.61 1026.59 1026.62 1026.68
1021.48 1021.83 1022.27 1022.73 1023.16 1023.52 1023.78 1023.97 1024.12 1024.27 1024.47 1024.74 1025.07 1025.46 1025.84 1026.18 1026.44 1026.60 1026.65 1026.62 1026.55 1026.48 1026.44 1026.46 1026.54 1026.67 1026.82 1026.97 1027.11 1027.22 1027.29 1027.33 1027.35 1027.34 1027.32 1027.28 1027.23 1027.18 1027.12 1027.08 1027.05 1027.06 1027.08
1021.09 1021.46 1021.90 1022.36 1022.79 1023.14 1023.42 1023.63 1023.81 1024.01 1024.26 1024.58 1024.97 1025.40 1025.82 1026.19 1026.47 1026.63 1026.69 1026.67 1026.59 1026.52 1026.47 1026.48 1026.55 1026.67 1026.83 1026.99 1027.16 1027.31 1027.43 1027.53 1027.60 1027.66 1027.69 1027.70 1027.68 1027.65 1027.59 1027.53 1027.48 1027.44 1027.43
1020.72 1021.08 1021.51 1021.96 1022.37 1022.71 1022.99 1023.21 1023.42 1023.64 1023.93 1024.28 1024.70 1025.15 1025.59 1025.98 1026.28 1026.48 1026.57 1026.59 1026.55 1026.51 1026.49 1026.52 1026.60 1026.72 1026.89 1027.07 1027.26 1027.44 1027.61 1027.76 1027.90 1028.01 1028.09 1028.14 1028.15 1028.12 1028.06 1027.97 1027.88 1027.80 1027.73
1020.35 1020.70 1021.11 1021.52 1021.91 1022.24 1022.52 1022.75 1022.97 1023.22 1023.52 1023.88 1024.29 1024.74 1025.18 1025.59 1025.91 1026.16 1026.31 1026.39 1026.44 1026.47 1026.51 1026.58 1026.69 1026.84 1027.01 1027.21 1027.41 1027.62 1027.82 1028.02 1028.21 1028.37 1028.50 1028.59 1028.62 1028.59 1028.52 1028.41 1028.29 1028.16 1028.04
1019.95 1020.27 1020.65 1021.04 1021.40 1021.73 1022.01 1022.27 1022.51 1022.77 1023.07 1023.41 1023.81 1024.23 1024.66 1025.06 1025.41 1025.70 1025.93 1026.11 1026.25 1026.37 1026.50 1026.63 1026.79 1026.96 1027.15 1027.36 1027.58 1027.80 1028.04 1028.28 1028.51 1028.73 1028.90 1029.02 1029.08 1029.07 1028.99 1028.86 1028.71 1028.54 1028.39
1019.45 1019.75 1020.09 1020.46 1020.82 1021.17 1021.48 1021.77 1022.04 1022.32 1022.61 1022.94 1023.30 1023.68 1024.07 1024.46 1024.83 1025.16 1025.47 1025.73 1025.98 1026.20 1026.42 1026.62 1026.83 1027.03 1027.23 1027.45 1027.68 1027.92 1028.19 1028.47 1028.75 1029.02 1029.25 1029.42 1029.51 1029.52 1029.45 1029.32 1029.15 1028.96 1028.79
1018.82 1019.08 1019.41 1019.77 1020.15 1020.53 1020.90 1021.24 1021.57 1021.88 1022.18 1022.49 1022.81 1023.14 1023.49 1023.84 1024.20 1024.56 1024.92 1025.27 1025.60 1025.92 1026.21 1026.48 1026.72 1026.95 1027.17 1027.39 1027.63 1027.90 1028.21 1028.53 1028.87 1029.21 1029.50 1029.73 1029.87 1029.92 1029.87 1029.76 1029.59 1029.40 1029.21
1018.03 1018.27 1018.58 1018.95 1019.37 1019.82 1020.26 1020.69 1021.08 1021.44 1021.76 1022.06 1022.34 1022.62 1022.90 1023.21 1023.55 1023.92 1024.30 1024.70 1025.09 1025.47 1025.82 1026.13 1026.40 1026.65 1026.88 1027.12 1027.38 1027.68 1028.03 1028.41 1028.82 1029.23 1029.60 1029.90 1030.11 1030.22 1030.23 1030.14 1029.99 1029.81 1029.63
1017.09 1017.31 1017.63 1018.03 1018.50 1019.01 1019.55 1020.07 1020.54 1020.96 1021.31 1021.60 1021.85 1022.08 1022.31 1022.57 1022.87 1023.21 1023.60 1024.01 1024.43 1024.84 1025.21 1025.55 1025.84 1026.10 1026.34 1026.60 1026.88 1027.22 1027.62 1028.07 1028.56 1029.05 1029.51 1029.90 1030.20 1030.38 1030.45 1030.42 1030.31 1030.16 1029.99
1016.05 1016.27 1016.59 1017.02 1017.54 1018.13 1018.75 1019.36 1019.91 1020.39 1020.78 1021.07 1021.30 1021.49 1021.67 1021.87 1022.13 1022.43 1022.80 1023.20 1023.62 1024.03 1024.41 1024.75 1025.05 1025.31 1025.57 1025.85 1026.16 1026.55 1027.00 1027.51 1028.08 1028.65 1029.20 1029.69 1030.07 1030.35 1030.50 1030.54 1030.49 1030.38 1030.24
1014.99 1015.21 1015.54 1015.99 1016.55 1017.19 1017.87 1018.54 1019.15 1019.68 1020.09 1020.40 1020.61 1020.78 1020.92 1021.09 1021.30 1021.57 1021.91 1022.29 1022.69 1023.08 1023.46 1023.79 1024.09 1024.36 1024.63 1024.93 1025.28 1025.70 1026.20 1026.77 1027.40 1028.05 1028.68 1029.25 1029.73 1030.10 1030.35 1030.48 1030.51 1030.46 1030.36
1013.95 1014.18 1014.51 1014.97 1015.54 1016.20 1016.91 1017.61 1018.25 1018.80 1019.23 1019.54 1019.75 1019.91 1020.04 1020.19 1020.38 1020.63 1020.94 1021.30 1021.69 1022.07 1022.43 1022.76 1023.06 1023.34 1023.62 1023.94 1024.31 1024.76 1025.29 1025.90 1026.57 1027.26 1027.95 1028.59 1029.16 1029.63 1029.98 1030.22 1030.35 1030.39 1030.36
1013.01 1013.24 1013.56 1014.01 1014.56 1015.20 1015.89 1016.58 1017.21 1017.75 1018.18 1018.49 1018.71 1018.88 1019.02 1019.17 1019.37 1019.63 1019.94 1020.30 1020.67 1021.05 1021.40 1021.73 1022.03 1022.32 1022.62 1022.95 1023.34 1023.79 1024.33 1024.94 1025.62 1026.33 1027.05 1027.75 1028.39 1028.95 1029.42 1029.78 1030.03 1030.18 1030.25
Thickness
5695 5695 5694 5693 5692 5691 5691 5691 5692 5692 5692 5692 5692 5692 5691 5691 5691 5690 5690 5689 5689 5688 5687 5686 5685 5685 5684 5684 5683 5682 5681 5681 5680 5680 5680 5679 5678 5677 5675 5674 5673 5672 5671
5697 5695 5693 5692 5691 5690 5690 5690 5690 5691 5691 5691 5690 5690 5689 5689 5688 5688 5688 5687 5686 5685 5684 5683 5683 5682 5682 5682 5681 5680 5679 5678 5677 5677 5676 5676 5675 5674 5673 5672 5671 5669 5668
5697 5694 5693 5692 5690 5690 5689 5689 5689 5689 5689 5689 5689 5688 5688 5687 5687 5686 5685 5684 5684 5683 5682 5681 5681 5680 5680 5680 5679 5678 5676 5675 5674 5674 5674 5673 5672 5671 5670 5669 5668 5667 5665
5696 5694 5692 5691 5690 5689 5688 5688 5688 5688 5688 5688 5687 5687 5686 5685 5685 5684 5683 5682 5681 5681 5680 5679 5678 5678 5678 5677 5677 5676 5674 5673 5672 5672 5671 5671 5670 5669 5668 5666 5665 5663 5662
5695 5693 5691 5690 5689 5688 5687 5687 5687 5687 5687 5687 5686 5685 5684 5684 5683 5682 5681 5680 5679 5679 5678 5677 5677 5676 5676 5675 5675 5673 5672 5671 5670 5670 5669 5668 5668 5667 5665 5664 5662 5661 5659
5694 5692 5690 5689 5688 5687 5686 5686 5686 5686 5686 5685 5685 5684 5683 5682 5681 5680 5679 5678 5677 5677 5676 5676 5675 5674 5673 5673 5672 5671 5670 5668 5668 5667 5667 5666 5665 5664 5663 5661 5660 5658 5656
5692 5690 5689 5688 5687 5686 5685 5685 5684 5684 5684 5684 5683 5682 5681 5680 5679 5678 5677 5676 5675 5675 5674 5674 5673 5672 5671 5671 5670 5669 5667 5666 5666 5665 5664 5664 5663 5662 5660 5658 5657 5655 5653
5692 5689 5688 5687 5686 5685 5685 5684 5683 5683 5682 5682 5681 5680 5679 5678 5677 5676 5675 5674 5673 5673 5672 5672 5671 5670 5670 5669 5668 5667 5666 5664 5663 5662 5661 5661 5660 5659 5657 5655 5653 5651 5649
5691 5688 5687 5686 5685 5684 5683 5683 5682 5682 5681 5680 5679 5678 5677 5677 5675 5674 5673 5672 5672 5671 5670 5670 5669 5668 5668 5667 5666 5665 5664 5662 5661 5660 5659 5658 5657 5656 5654 5652 5650 5647 5645
5689 5688 5686 5685 5684 5683 5682 5681 5681 5680 5679 5678 5677 5676 5675 5675 5674 5673 5672 5671 5670 5669 5668 5668 5667 5666 5666 5665 5663 5662 5661 5660 5658 5657 5655 5654 5653 5652 5650 5648 5645 5643 5640
5688 5687 5686 5685 5683 5682 5681 5680 5679 5678 5677 5677 5675 5674 5673 5673 5672 5671 5670 5669 5668 5667 5667 5666 5665 5664 5664 5663 5661 5660 5658 5657 5655 5654 5652 5651 5650 5648 5646 5643 5641 5638 5635
5687 5687 5686 5685 5684 5682 5680 5679 5678 5677 5676 5675 5674 5673 5671 5671 5670 5669 5668 5667 5667 5666 5665 5664 5663 5662 5661 5660 5659 5657 5656 5654 5652 5650 5649 5647 5646 5644 5641 5639 5636 5633 5629
5690 5688 5687 5686 5684 5683 5681 5679 5677 5676 5675 5673 5672 5671 5670 5669 5668 5667 5666 5665 5664 5663 5663 5662 5661 5660 5659 5658 5657 5655 5653 5651 5649 5647 5645 5643 5641 5639 5637 5634 5631 5627 5623
5690 5689 5688 5687 5685 5683 5682 5680 5678 5676 5674 5673 5672 5671 5669 5667 5666 5665 5664 5663 5663 5662 5661 5660 5659 5658 5657 5656 5654 5652 5650 5648 5645 5643 5641 5639 5637 5635 5632 5629 5625 5622 5618
5691 5690 5690 5688 5686 5684 5682 5680 5678 5677 5675 5674 5672 5670 5669 5667 5666 5664 5663 5662 5661 5660 5659 5658 5657 5656 5655 5653 5652 5650 5647 5645 5642 5640 5637 5635 5633 5630 5627 5624 5620 5616 5612
5694 5693 5692 5689 5687 5685 5683 5681 5679 5677 5676 5674 5672 5671 5669 5668 5666 5664 5662 5661 5660 5659 5658 5656 5655 5654 5652 5651 5649 5647 5644 5641 5638 5636 5633 5630 5627 5624 5621 5617 5614 5610 5606
5697 5696 5694 5691 5689 5686 5684 5682 5680 5678 5676 5675 5673 5671 5669 5668 5666 5664 5662 5660 5659 5658 5656 5654 5653 5651 5649 5648 5646 5643 5641 5638 5635 5631 5628 5625 5621 5618 5614 5611 5607 5603 5599
5698 5696 5695 5693 5690 5687 5685 5683 5681 5679 5677 5675 5674 5672 5670 5668 5666 5663 5661 5660 5658 5656 5654 5652 5651 5648 5646 5644 5642 5640 5637 5634 5631 5627 5623 5620 5616 5612 5607 5603 5600 5595 5591
5700 5698 5696 5694 5691 5689 5686 5684 5682 5680 5678 5676 5674 5672 5670 5668 5666 5664 5661 5659 5657 5655 5653 5651 5648 5646 5643 5640 5638 5635 5633 5630 5626 5622 5618 5614 5610 5605 5600 5596 5592 5587 5583
5701 5699 5696 5694 5692 5689 5686 5683 5681 5679 5678 5676 5675 5673 5671 5669 5667 5664 5661 5659 5656 5653 5651 5648 5646 5643 5640 5637 5634 5630 5627 5624 5621 5617 5613 5608 5603 5598 5594 5589 5584 5579 5574
5701 5699 5697 5695 5693 5689 5687 5684 5681 5679 5678 5677 5676 5674 5672 5670 5667 5664 5661 5658 5656 5653 5651 5648 5644 5640 5636 5633 5628 5623 5620 5618 5615 5612 5607 5602 5597 5592 5587 5582 5577 5572 5566
5703 5701 5699 5697 5694 5692 5690 5688 5685 5682 5679 5678 5676 5674 5672 5670 5667 5664 5662 5659 5656 5652 5649 5645 5642 5637 5633 5629 5624 5618 5613 5610 5608 5606 5601 5596 5591 5586 5580 5574 5569 5564 5558
5705 5704 5702 5700 5697 5694 5691 5685 5681 5678 5676 5675 5674 5674 5672 5670 5668 5666 5663 5659 5656 5653 5649 5645 5641 5636 5631 5627 5624 5618 5612 5610 5604 5599 5594 5590 5585 5579 5574 5568 5562 5556 5550
5709 5708 5705 5703 5699 5696 5691 5687 5683 5682 5681 5682 5679 5676 5674 5671 5668 5666 5663 5659 5656 5652 5649 5645 5640 5636 5631 5625 5620 5618 5615 5610 5601 5594 5588 5583 5578 5573 5567 5562 5555 5549 5543
5712 5709 5707 5703 5700 5697 5692 5689 5685 5684 5683 5680 5676 5674 5672 5670 5667 5665 5662 5658 5655 5652 5648 5644 5639 5634 5631 5626 5620 5615 5609 5604 5600 5592 5584 5577 5571 5567 5561 5555 5548 5542 5535
5712 5709 5706 5703 5701 5697 5693 5690 5687 5685 5682 5677 5675 5673 5671 5668 5666 5664 5661 5657 5654 5651 5647 5643 5639 5634 5630 5625 5620 5615 5609 5603 5598 5590 5582 5574 5567 5561 5554 5548 5541 5535 5528